This is the latest recevied weather packets stored in our database for station/object WA1TYB-13. If no packets are shown the sender has not sent any weather packets the latest 10 day(s).
| Time | Temp. | Humidity | Pressure | Rain* | Wind** | Luminosity | Snow |
|---|---|---|---|---|---|---|---|
| 1777476942 | 6.67° C | 67% | 1024.2 hPa | 0 mm | - | 340 W/m² | - |
| 1777476641 | 6.67° C | 67% | 1024.4 hPa | 0 mm | - | 219 W/m² | - |
| 1777476337 | 7.22° C | 66% | 1024.4 hPa | 0 mm | - | 192 W/m² | - |
| 1777476032 | 7.22° C | 65% | 1024.4 hPa | 0 mm | - | 213 W/m² | - |
| 1777475728 | 7.22° C | 64% | 1024.2 hPa | 0 mm | - | 242 W/m² | - |
| 1777475425 | 6.67° C | 66% | 1024.3 hPa | 0 mm | - | 334 W/m² | - |
| 1777475120 | 7.22° C | 67% | 1024.5 hPa | 0 mm | - | 272 W/m² | - |
| 1777474817 | 7.22° C | 68% | 1024.4 hPa | 0 mm | - | 275 W/m² | - |
| 1777474513 | 6.67° C | 69% | 1024.3 hPa | 0 mm | - | 256 W/m² | - |
| 1777474210 | 6.67° C | 71% | 1024.4 hPa | 0 mm | - | 234 W/m² | - |
| 1777473907 | 6.67° C | 71% | 1024.4 hPa | 0 mm | - | 217 W/m² | - |
| 1777473605 | 6.11° C | 72% | 1024.2 hPa | 0 mm | - | 188 W/m² | - |
| 1777473301 | 5.56° C | 72% | 1024.2 hPa | 0 mm | - | 169 W/m² | - |
| 1777472996 | 5.56° C | 73% | 1024.3 hPa | 0 mm | - | 184 W/m² | - |
| 1777472693 | 5° C | 73% | 1024.2 hPa | 0 mm | - | 182 W/m² | - |
| 1777472389 | 5° C | 75% | 1024.3 hPa | 0 mm | - | 163 W/m² | - |
| 1777472087 | 4.44° C | 77% | 1024.3 hPa | 0 mm | - | 154 W/m² | - |
| 1777471782 | 3.89° C | 78% | 1024 hPa | 0 mm | - | 129 W/m² | - |
| 1777471479 | 3.33° C | 78% | 1024.2 hPa | 0 mm | - | 115 W/m² | - |
| 1777471176 | 3.33° C | 78% | 1024.2 hPa | 0 mm | - | 97 W/m² | - |
| 1777470873 | 3.33° C | 78% | 1024.1 hPa | 0 mm | - | 82 W/m² | - |
| 1777470570 | 3.33° C | 78% | 1024.2 hPa | 0 mm | - | 73 W/m² | - |
| 1777470266 | 3.33° C | 77% | 1024 hPa | 0 mm | - | 69 W/m² | - |
| 1777469962 | 3.33° C | 76% | 1023.9 hPa | 0 mm | - | 65 W/m² | - |
| 1777469657 | 3.33° C | 75% | 1024.1 hPa | 0 mm | - | 60 W/m² | - |
* Rain latest hour (hover to see other rain measurements)
** Current wind speed in m/s (hover to see current wind gust speed)